Year,Month,Day,Hour,Minute,Value (Times are PST for temperature in C)
2007,07,10,00,00,17.50
2007,07,10,00,01,17.40
2007,07,10,00,02,17.40
2007,07,10,00,03,17.40
2007,07,10,00,04,17.40
2007,07,10,00,05,17.30
2007,07,10,00,06,17.30
2007,07,10,00,07,17.30
2007,07,10,00,08,17.20
2007,07,10,00,09,17.20
2007,07,10,00,10,17.10
2007,07,10,00,11,17.00
2007,07,10,00,12,17.00
2007,07,10,00,13,16.90
2007,07,10,00,14,16.90
2007,07,10,00,15,16.80
2007,07,10,00,16,16.80
2007,07,10,00,17,16.80
2007,07,10,00,18,16.90
2007,07,10,00,19,16.90
2007,07,10,00,20,16.90
2007,07,10,00,21,17.00
2007,07,10,00,22,17.10
2007,07,10,00,23,17.20
2007,07,10,00,24,17.40
2007,07,10,00,25,17.50
2007,07,10,00,26,17.60
2007,07,10,00,27,17.70
2007,07,10,00,28,17.70
2007,07,10,00,29,17.70
2007,07,10,00,30,17.80
2007,07,10,00,31,17.80
2007,07,10,00,32,17.90
2007,07,10,00,33,18.00
2007,07,10,00,34,18.00
2007,07,10,00,35,18.10
2007,07,10,00,36,18.10
2007,07,10,00,37,18.10
2007,07,10,00,38,18.10
2007,07,10,00,39,18.10
2007,07,10,00,40,18.20
2007,07,10,00,41,18.20
2007,07,10,00,42,18.20
2007,07,10,00,43,18.20
2007,07,10,00,44,18.30
2007,07,10,00,45,18.30
2007,07,10,00,46,18.30
2007,07,10,00,47,18.30
2007,07,10,00,48,18.30
2007,07,10,00,49,18.20
2007,07,10,00,50,18.20
2007,07,10,00,51,18.20
2007,07,10,00,52,18.20
2007,07,10,00,53,18.20
2007,07,10,00,54,18.20
2007,07,10,00,55,18.20
2007,07,10,00,56,18.40
2007,07,10,00,57,18.50
2007,07,10,00,58,18.60
2007,07,10,00,59,18.70
2007,07,10,01,00,18.80
2007,07,10,01,01,18.90
2007,07,10,01,02,19.00
2007,07,10,01,03,19.00
2007,07,10,01,04,19.10
2007,07,10,01,05,19.20
2007,07,10,01,06,19.20
2007,07,10,01,07,19.30
2007,07,10,01,08,19.30
2007,07,10,01,09,19.40
2007,07,10,01,10,19.40
2007,07,10,01,11,19.50
2007,07,10,01,12,19.60
2007,07,10,01,13,19.70
2007,07,10,01,14,19.80
2007,07,10,01,15,19.80
2007,07,10,01,16,19.90
2007,07,10,01,17,19.90
2007,07,10,01,18,19.90
2007,07,10,01,19,20.00
2007,07,10,01,20,20.00
2007,07,10,01,21,20.00
2007,07,10,01,22,20.00
2007,07,10,01,23,20.00
2007,07,10,01,24,20.00
2007,07,10,01,25,20.00
2007,07,10,01,26,20.00
2007,07,10,01,27,20.00
2007,07,10,01,28,19.90
2007,07,10,01,29,19.90
2007,07,10,01,30,19.90
2007,07,10,01,31,19.80
2007,07,10,01,32,19.80
2007,07,10,01,33,19.80
2007,07,10,01,34,19.90
2007,07,10,01,35,19.80
2007,07,10,01,36,19.80
2007,07,10,01,37,19.80
2007,07,10,01,38,19.80
2007,07,10,01,39,19.80
2007,07,10,01,40,19.70
2007,07,10,01,41,19.70
2007,07,10,01,42,19.70
2007,07,10,01,43,19.70
2007,07,10,01,44,19.70
2007,07,10,01,45,19.70
2007,07,10,01,46,19.80
2007,07,10,01,47,19.80
2007,07,10,01,48,19.80
2007,07,10,01,49,19.80
2007,07,10,01,50,19.70
2007,07,10,01,51,19.70
2007,07,10,01,52,19.70
2007,07,10,01,53,19.60
2007,07,10,01,54,19.60
2007,07,10,01,55,19.60
2007,07,10,01,56,19.50
2007,07,10,01,57,19.50
2007,07,10,01,58,19.50
2007,07,10,01,59,19.50
2007,07,10,02,00,19.40
2007,07,10,02,01,19.40
2007,07,10,02,02,19.40
2007,07,10,02,03,19.40
2007,07,10,02,04,19.30
2007,07,10,02,05,19.30
2007,07,10,02,06,19.20
2007,07,10,02,07,19.20
2007,07,10,02,08,19.20
2007,07,10,02,09,19.10
2007,07,10,02,10,19.10
2007,07,10,02,11,19.00
2007,07,10,02,12,19.00
2007,07,10,02,13,18.90
2007,07,10,02,14,18.90
2007,07,10,02,15,18.90
2007,07,10,02,16,18.80
2007,07,10,02,17,18.80
2007,07,10,02,18,18.70
2007,07,10,02,19,18.60
2007,07,10,02,20,18.50
2007,07,10,02,21,18.40
2007,07,10,02,22,18.30
2007,07,10,02,23,18.10
2007,07,10,02,24,18.00
2007,07,10,02,25,17.90
2007,07,10,02,26,17.80
2007,07,10,02,27,17.80
2007,07,10,02,28,17.70
2007,07,10,02,29,17.60
2007,07,10,02,30,17.50
2007,07,10,02,31,17.40
2007,07,10,02,32,17.40
2007,07,10,02,33,17.40
2007,07,10,02,34,17.40
2007,07,10,02,35,17.40
2007,07,10,02,36,17.50
2007,07,10,02,37,17.40
2007,07,10,02,38,17.40
2007,07,10,02,39,17.40
2007,07,10,02,40,17.30
2007,07,10,02,41,17.20
2007,07,10,02,42,17.10
2007,07,10,02,43,17.10
2007,07,10,02,44,17.10
2007,07,10,02,45,17.00
2007,07,10,02,46,17.00
2007,07,10,02,47,16.90
2007,07,10,02,48,16.80
2007,07,10,02,49,16.80
2007,07,10,02,50,16.70
2007,07,10,02,51,16.60
2007,07,10,02,52,16.60
2007,07,10,02,53,16.50
2007,07,10,02,54,16.40
2007,07,10,02,55,16.30
2007,07,10,02,56,16.30
2007,07,10,02,57,16.20
2007,07,10,02,58,16.10
2007,07,10,02,59,16.10
2007,07,10,03,00,16.00
2007,07,10,03,01,15.90
2007,07,10,03,02,15.90
2007,07,10,03,03,15.80
2007,07,10,03,04,15.70
2007,07,10,03,05,15.70
2007,07,10,03,06,15.60
2007,07,10,03,07,15.50
2007,07,10,03,08,15.50
2007,07,10,03,09,15.40
2007,07,10,03,10,15.30
2007,07,10,03,11,15.30
2007,07,10,03,12,15.30
2007,07,10,03,13,15.30
2007,07,10,03,14,15.30
2007,07,10,03,15,15.30
2007,07,10,03,16,15.30
2007,07,10,03,17,15.40
2007,07,10,03,18,15.50
2007,07,10,03,19,15.60
2007,07,10,03,20,15.60
2007,07,10,03,21,15.70
2007,07,10,03,22,15.80
2007,07,10,03,23,15.90
2007,07,10,03,24,16.00
2007,07,10,03,25,16.10
2007,07,10,03,26,16.20
2007,07,10,03,27,16.20
2007,07,10,03,28,16.20
2007,07,10,03,29,16.30
2007,07,10,03,30,16.30
2007,07,10,03,31,16.30
2007,07,10,03,32,16.30
2007,07,10,03,33,16.30
2007,07,10,03,34,16.30
2007,07,10,03,35,16.30
2007,07,10,03,36,16.30
2007,07,10,03,37,16.30
2007,07,10,03,38,16.20
2007,07,10,03,39,16.20
2007,07,10,03,40,16.10
2007,07,10,03,41,16.10
2007,07,10,03,42,16.10
2007,07,10,03,43,16.00
2007,07,10,03,44,15.90
2007,07,10,03,45,15.90
2007,07,10,03,46,15.90
2007,07,10,03,47,15.80
2007,07,10,03,48,15.80
2007,07,10,03,49,15.70
2007,07,10,03,50,15.70
2007,07,10,03,51,15.60
2007,07,10,03,52,15.50
2007,07,10,03,53,15.50
2007,07,10,03,54,15.40
2007,07,10,03,55,15.40
2007,07,10,03,56,15.30
2007,07,10,03,57,15.20
2007,07,10,03,58,15.20
2007,07,10,03,59,15.10
2007,07,10,04,00,15.00
2007,07,10,04,01,15.00
2007,07,10,04,02,15.00
2007,07,10,04,03,15.00
2007,07,10,04,04,15.00
2007,07,10,04,05,15.00
2007,07,10,04,06,15.00
2007,07,10,04,07,15.00
2007,07,10,04,08,15.00
2007,07,10,04,09,15.00
2007,07,10,04,10,14.90
2007,07,10,04,11,14.90
2007,07,10,04,12,14.80
2007,07,10,04,13,14.80
2007,07,10,04,14,14.80
2007,07,10,04,15,14.80
2007,07,10,04,16,14.70
2007,07,10,04,17,14.70
2007,07,10,04,18,14.70
2007,07,10,04,19,14.70
2007,07,10,04,20,14.70
2007,07,10,04,21,14.60
2007,07,10,04,22,14.60
2007,07,10,04,23,14.60
2007,07,10,04,24,14.60
2007,07,10,04,25,14.60
2007,07,10,04,26,14.60
2007,07,10,04,27,14.60
2007,07,10,04,28,14.60
2007,07,10,04,29,14.60
2007,07,10,04,30,14.60
2007,07,10,04,31,14.60
2007,07,10,04,32,14.60
2007,07,10,04,33,14.70
2007,07,10,04,34,14.70
2007,07,10,04,35,14.70
2007,07,10,04,36,14.80
2007,07,10,04,37,14.80
2007,07,10,04,38,14.90
2007,07,10,04,39,14.90
2007,07,10,04,40,15.00
2007,07,10,04,41,15.00
2007,07,10,04,42,14.90
2007,07,10,04,43,14.90
2007,07,10,04,44,14.80
2007,07,10,04,45,14.80
2007,07,10,04,46,14.80
2007,07,10,04,47,14.70
2007,07,10,04,48,14.70
2007,07,10,04,49,14.70
2007,07,10,04,50,14.70
2007,07,10,04,51,14.70
2007,07,10,04,52,14.70
2007,07,10,04,53,14.70
2007,07,10,04,54,14.70
2007,07,10,04,55,14.60
2007,07,10,04,56,14.60
2007,07,10,04,57,14.60
2007,07,10,04,58,14.60
2007,07,10,04,59,14.60
2007,07,10,05,00,14.60
2007,07,10,05,01,14.60
2007,07,10,05,02,14.60
2007,07,10,05,03,14.60
2007,07,10,05,04,14.60
2007,07,10,05,05,14.60
2007,07,10,05,06,14.60
2007,07,10,05,07,14.60
2007,07,10,05,08,14.60
2007,07,10,05,09,14.60
2007,07,10,05,10,14.60
2007,07,10,05,11,14.60
2007,07,10,05,12,14.60
2007,07,10,05,13,14.50
2007,07,10,05,14,14.50
2007,07,10,05,15,14.50
2007,07,10,05,16,14.40
2007,07,10,05,17,14.40
2007,07,10,05,18,14.40
2007,07,10,05,19,14.40
2007,07,10,05,20,14.40
2007,07,10,05,21,14.40
2007,07,10,05,22,14.40
2007,07,10,05,23,14.40
2007,07,10,05,24,14.40
2007,07,10,05,25,14.40
2007,07,10,05,26,14.40
2007,07,10,05,27,14.40
2007,07,10,05,28,14.40
2007,07,10,05,29,14.40
2007,07,10,05,30,14.30
2007,07,10,05,31,14.30
2007,07,10,05,32,14.30
2007,07,10,05,33,14.30
2007,07,10,05,34,14.30
2007,07,10,05,35,14.30
2007,07,10,05,36,14.30
2007,07,10,05,37,14.30
2007,07,10,05,38,14.30
2007,07,10,05,39,14.30
2007,07,10,05,40,14.30
2007,07,10,05,41,14.30
2007,07,10,05,42,14.30
2007,07,10,05,43,14.30
2007,07,10,05,44,14.30
2007,07,10,05,45,14.30
2007,07,10,05,46,14.40
2007,07,10,05,47,14.40
2007,07,10,05,48,14.40
2007,07,10,05,49,14.40
2007,07,10,05,50,14.40
2007,07,10,05,51,14.40
2007,07,10,05,52,14.40
2007,07,10,05,53,14.40
2007,07,10,05,54,14.40
2007,07,10,05,55,14.40
2007,07,10,05,56,14.50
2007,07,10,05,57,14.50
2007,07,10,05,58,14.50
2007,07,10,05,59,14.60
2007,07,10,06,00,14.60
2007,07,10,06,01,14.60
2007,07,10,06,02,14.60
2007,07,10,06,03,14.70
2007,07,10,06,04,14.70
2007,07,10,06,05,14.70
2007,07,10,06,06,14.70
2007,07,10,06,07,14.80
2007,07,10,06,08,14.80
2007,07,10,06,09,14.80
2007,07,10,06,10,14.80
2007,07,10,06,11,14.90
2007,07,10,06,12,14.90
2007,07,10,06,13,15.00
2007,07,10,06,14,15.00
2007,07,10,06,15,15.00
2007,07,10,06,16,15.00
2007,07,10,06,17,15.00
2007,07,10,06,18,15.00
2007,07,10,06,19,15.00
2007,07,10,06,20,15.00
2007,07,10,06,21,15.00
2007,07,10,06,22,15.00
2007,07,10,06,23,15.00
2007,07,10,06,24,15.00
2007,07,10,06,25,15.00
2007,07,10,06,26,15.00
2007,07,10,06,27,15.10
2007,07,10,06,28,15.20
2007,07,10,06,29,15.20
2007,07,10,06,30,15.30
2007,07,10,06,31,15.30
2007,07,10,06,32,15.30
2007,07,10,06,33,15.40
2007,07,10,06,34,15.40
2007,07,10,06,35,15.50
2007,07,10,06,36,15.50
2007,07,10,06,37,15.60
2007,07,10,06,38,15.60
2007,07,10,06,39,15.70
2007,07,10,06,40,15.70
2007,07,10,06,41,15.80
2007,07,10,06,42,15.80
2007,07,10,06,43,15.90
2007,07,10,06,44,16.00
2007,07,10,06,45,16.10
2007,07,10,06,46,16.20
2007,07,10,06,47,16.20
2007,07,10,06,48,16.30
2007,07,10,06,49,16.40
2007,07,10,06,50,16.40
2007,07,10,06,51,16.50
2007,07,10,06,52,16.60
2007,07,10,06,53,16.70
2007,07,10,06,54,16.80
2007,07,10,06,55,17.00
2007,07,10,06,56,17.10
2007,07,10,06,57,17.30
2007,07,10,06,58,17.40
2007,07,10,06,59,17.50
2007,07,10,07,00,17.70
2007,07,10,07,01,17.80
2007,07,10,07,02,17.90
2007,07,10,07,03,18.00
2007,07,10,07,04,18.10
2007,07,10,07,05,18.20
2007,07,10,07,06,18.30
2007,07,10,07,07,18.40
2007,07,10,07,08,18.50
2007,07,10,07,09,18.60
2007,07,10,07,10,18.80
2007,07,10,07,11,18.80
2007,07,10,07,12,18.90
2007,07,10,07,13,19.00
2007,07,10,07,14,19.10
2007,07,10,07,15,19.20
2007,07,10,07,16,19.20
2007,07,10,07,17,19.30
2007,07,10,07,18,19.40
2007,07,10,07,19,19.40
2007,07,10,07,20,19.40
2007,07,10,07,21,19.50
2007,07,10,07,22,19.50
2007,07,10,07,23,19.60
2007,07,10,07,24,19.60
2007,07,10,07,25,19.70
2007,07,10,07,26,19.70
2007,07,10,07,27,19.70
2007,07,10,07,28,19.70
2007,07,10,07,29,19.60
2007,07,10,07,30,19.60
2007,07,10,07,31,19.50
2007,07,10,07,32,19.40
2007,07,10,07,33,19.40
2007,07,10,07,34,19.40
2007,07,10,07,35,19.30
2007,07,10,07,36,19.40
2007,07,10,07,37,19.40
2007,07,10,07,38,19.40
2007,07,10,07,39,19.50
2007,07,10,07,40,19.50
2007,07,10,07,41,19.60
2007,07,10,07,42,19.60
2007,07,10,07,43,19.60
2007,07,10,07,44,19.60
2007,07,10,07,45,19.70
2007,07,10,07,46,19.70
2007,07,10,07,47,19.70
2007,07,10,07,48,19.70
2007,07,10,07,49,19.70
2007,07,10,07,50,19.70
2007,07,10,07,51,19.70
2007,07,10,07,52,19.80
2007,07,10,07,53,19.80
2007,07,10,07,54,19.90
2007,07,10,07,55,19.90
2007,07,10,07,56,20.00
2007,07,10,07,57,20.00
2007,07,10,07,58,20.10
2007,07,10,07,59,20.10
2007,07,10,08,00,20.10
2007,07,10,08,01,20.10
2007,07,10,08,02,20.20
2007,07,10,08,03,20.20
2007,07,10,08,04,20.20
2007,07,10,08,05,20.20
2007,07,10,08,06,20.20
2007,07,10,08,07,20.20
2007,07,10,08,08,20.30
2007,07,10,08,09,20.30
2007,07,10,08,10,20.30
2007,07,10,08,11,20.20
2007,07,10,08,12,20.20
2007,07,10,08,13,20.20
2007,07,10,08,14,20.10
2007,07,10,08,15,20.10
2007,07,10,08,16,20.10
2007,07,10,08,17,20.00
2007,07,10,08,18,19.90
2007,07,10,08,19,19.80
2007,07,10,08,20,19.70
2007,07,10,08,21,19.60
2007,07,10,08,22,19.50
2007,07,10,08,23,19.40
2007,07,10,08,24,19.40
2007,07,10,08,25,19.40
2007,07,10,08,26,19.40
2007,07,10,08,27,19.40
2007,07,10,08,28,19.40
2007,07,10,08,29,19.40
2007,07,10,08,30,19.40
2007,07,10,08,31,19.40
2007,07,10,08,32,19.40
2007,07,10,08,33,19.50
2007,07,10,08,34,19.50
2007,07,10,08,35,19.50
2007,07,10,08,36,19.50
2007,07,10,08,37,19.60
2007,07,10,08,38,19.60
2007,07,10,08,39,19.70
2007,07,10,08,40,19.80
2007,07,10,08,41,19.80
2007,07,10,08,42,19.90
2007,07,10,08,43,19.90
2007,07,10,08,44,19.90
2007,07,10,08,45,19.90
2007,07,10,08,46,20.00
2007,07,10,08,47,20.00
2007,07,10,08,48,20.10
2007,07,10,08,49,20.10
2007,07,10,08,50,20.10
2007,07,10,08,51,20.10
2007,07,10,08,52,20.00
2007,07,10,08,53,20.00
2007,07,10,08,54,20.00
2007,07,10,08,55,19.90
2007,07,10,08,56,19.80
2007,07,10,08,57,19.80
2007,07,10,08,58,19.70
2007,07,10,08,59,19.70
2007,07,10,09,00,19.60
2007,07,10,09,01,19.60
2007,07,10,09,02,19.60
2007,07,10,09,03,19.60
2007,07,10,09,04,19.60
2007,07,10,09,05,19.60
2007,07,10,09,06,19.60
2007,07,10,09,07,19.60
2007,07,10,09,08,19.60
2007,07,10,09,09,19.70
2007,07,10,09,10,19.80
2007,07,10,09,11,19.90
2007,07,10,09,12,20.00
2007,07,10,09,13,20.10
2007,07,10,09,14,20.20
2007,07,10,09,15,20.30
2007,07,10,09,16,20.30
2007,07,10,09,17,20.30
2007,07,10,09,18,20.40
2007,07,10,09,19,20.50
2007,07,10,09,20,20.60
2007,07,10,09,21,20.70
2007,07,10,09,22,20.80
2007,07,10,09,23,20.80
2007,07,10,09,24,20.90
2007,07,10,09,25,21.00
2007,07,10,09,26,21.10
2007,07,10,09,27,21.10
2007,07,10,09,28,21.10
2007,07,10,09,29,21.20
2007,07,10,09,30,21.10
2007,07,10,09,31,21.10
2007,07,10,09,32,21.10
2007,07,10,09,33,21.10
2007,07,10,09,34,21.10
2007,07,10,09,35,21.10
2007,07,10,09,36,21.10
2007,07,10,09,37,21.10
2007,07,10,09,38,21.10
2007,07,10,09,39,21.00
2007,07,10,09,40,21.00
2007,07,10,09,41,20.90
2007,07,10,09,42,20.90
2007,07,10,09,43,20.80
2007,07,10,09,44,20.80
2007,07,10,09,45,20.80
2007,07,10,09,46,20.90
2007,07,10,09,47,21.00
2007,07,10,09,48,21.00
2007,07,10,09,49,21.10
2007,07,10,09,50,21.10
2007,07,10,09,51,21.00
2007,07,10,09,52,20.90
2007,07,10,09,53,20.90
2007,07,10,09,54,20.90
2007,07,10,09,55,20.80
2007,07,10,09,56,20.80
2007,07,10,09,57,20.70
2007,07,10,09,58,20.70
2007,07,10,09,59,20.70
2007,07,10,10,00,20.80
2007,07,10,10,01,20.80
2007,07,10,10,02,20.80
2007,07,10,10,03,20.80
2007,07,10,10,04,20.80
2007,07,10,10,05,20.90
2007,07,10,10,06,20.90
2007,07,10,10,07,20.90
2007,07,10,10,08,21.00
2007,07,10,10,09,21.10
2007,07,10,10,10,21.10
2007,07,10,10,11,21.10
2007,07,10,10,12,21.20
2007,07,10,10,13,21.30
2007,07,10,10,14,21.30
2007,07,10,10,15,21.30
2007,07,10,10,16,21.30
2007,07,10,10,17,21.30
2007,07,10,10,18,21.30
2007,07,10,10,19,21.30
2007,07,10,10,20,21.20
2007,07,10,10,21,21.20
2007,07,10,10,22,21.30
2007,07,10,10,23,21.30
2007,07,10,10,24,21.40
2007,07,10,10,25,21.50
2007,07,10,10,26,21.60
2007,07,10,10,27,21.60
2007,07,10,10,28,21.70
2007,07,10,10,29,21.70
2007,07,10,10,30,21.70
2007,07,10,10,31,21.70
2007,07,10,10,32,21.80
2007,07,10,10,33,21.80
2007,07,10,10,34,21.80
2007,07,10,10,35,21.80
2007,07,10,10,36,22.00
2007,07,10,10,37,22.00
2007,07,10,10,38,22.10
2007,07,10,10,39,22.20
2007,07,10,10,40,22.20
2007,07,10,10,41,22.20
2007,07,10,10,42,22.10
2007,07,10,10,43,22.10
2007,07,10,10,44,22.10
2007,07,10,10,45,22.10
2007,07,10,10,46,22.20
2007,07,10,10,47,22.20
2007,07,10,10,48,22.20
2007,07,10,10,49,22.20
2007,07,10,10,50,22.20
2007,07,10,10,51,22.30
2007,07,10,10,52,22.30
2007,07,10,10,53,22.40
2007,07,10,10,54,22.50
2007,07,10,10,55,22.60
2007,07,10,10,56,22.70
2007,07,10,10,57,22.70
2007,07,10,10,58,22.60
2007,07,10,10,59,22.60
2007,07,10,11,00,22.60
2007,07,10,11,01,22.50
2007,07,10,11,02,22.50
2007,07,10,11,03,22.60
2007,07,10,11,04,22.70
2007,07,10,11,05,22.80
2007,07,10,11,06,22.80
2007,07,10,11,07,22.80
2007,07,10,11,08,22.80
2007,07,10,11,09,22.80
2007,07,10,11,10,22.80
2007,07,10,11,11,22.90
2007,07,10,11,12,22.90
2007,07,10,11,13,22.90
2007,07,10,11,14,22.80
2007,07,10,11,15,22.80
2007,07,10,11,16,22.80
2007,07,10,11,17,22.80
2007,07,10,11,18,22.80
2007,07,10,11,19,22.80
2007,07,10,11,20,22.80
2007,07,10,11,21,22.90
2007,07,10,11,22,22.90
2007,07,10,11,23,23.00
2007,07,10,11,24,23.20
2007,07,10,11,25,23.20
2007,07,10,11,26,23.20
2007,07,10,11,27,23.20
2007,07,10,11,28,23.20
2007,07,10,11,29,23.20
2007,07,10,11,30,23.20
2007,07,10,11,31,23.20
2007,07,10,11,32,23.20
2007,07,10,11,33,23.30
2007,07,10,11,34,23.40
2007,07,10,11,35,23.40
2007,07,10,11,36,23.50
2007,07,10,11,37,23.60
2007,07,10,11,38,23.60
2007,07,10,11,39,23.70
2007,07,10,11,40,23.70
2007,07,10,11,41,23.80
2007,07,10,11,42,23.70
2007,07,10,11,43,23.60
2007,07,10,11,44,23.50
2007,07,10,11,45,23.40
2007,07,10,11,46,23.30
2007,07,10,11,47,23.30
2007,07,10,11,48,23.30
2007,07,10,11,49,23.30
2007,07,10,11,50,23.40
2007,07,10,11,51,23.40
2007,07,10,11,52,23.40
2007,07,10,11,53,23.40
2007,07,10,11,54,23.40
2007,07,10,11,55,23.40
2007,07,10,11,56,23.30
2007,07,10,11,57,23.30
2007,07,10,11,58,23.20
2007,07,10,11,59,23.20
2007,07,10,12,00,23.20
2007,07,10,12,01,23.20
2007,07,10,12,02,23.30
2007,07,10,12,03,23.30
2007,07,10,12,04,23.30
2007,07,10,12,05,23.40
2007,07,10,12,06,23.40
2007,07,10,12,07,23.40
2007,07,10,12,08,23.40
2007,07,10,12,09,23.40
2007,07,10,12,10,23.40
2007,07,10,12,11,23.50
2007,07,10,12,12,23.50
2007,07,10,12,13,23.60
2007,07,10,12,14,23.70
2007,07,10,12,15,23.80
2007,07,10,12,16,23.80
2007,07,10,12,17,23.90
2007,07,10,12,18,24.00
2007,07,10,12,19,24.10
2007,07,10,12,20,24.20
2007,07,10,12,21,24.30
2007,07,10,12,22,24.40
2007,07,10,12,23,24.50
2007,07,10,12,24,24.50
2007,07,10,12,25,24.50
2007,07,10,12,26,24.50
2007,07,10,12,27,24.40
2007,07,10,12,28,24.40
2007,07,10,12,29,24.40
2007,07,10,12,30,24.40
2007,07,10,12,31,24.40
2007,07,10,12,32,24.50
2007,07,10,12,33,24.50
2007,07,10,12,34,24.60
2007,07,10,12,35,24.60
2007,07,10,12,36,24.60
2007,07,10,12,37,24.70
2007,07,10,12,38,24.70
2007,07,10,12,39,24.70
2007,07,10,12,40,24.70
2007,07,10,12,41,24.80
2007,07,10,12,42,24.80
2007,07,10,12,43,24.90
2007,07,10,12,44,25.00
2007,07,10,12,45,25.00
2007,07,10,12,46,25.00
2007,07,10,12,47,25.00
2007,07,10,12,48,25.00
2007,07,10,12,49,25.00
2007,07,10,12,50,25.00
2007,07,10,12,51,25.00
2007,07,10,12,52,25.10
2007,07,10,12,53,25.10
2007,07,10,12,54,25.20
2007,07,10,12,55,25.20
2007,07,10,12,56,25.20
2007,07,10,12,57,25.20
2007,07,10,12,58,25.20
2007,07,10,12,59,25.20
2007,07,10,13,00,25.20
2007,07,10,13,01,25.20
2007,07,10,13,02,25.20
2007,07,10,13,03,25.20
2007,07,10,13,04,25.20
2007,07,10,13,05,25.20
2007,07,10,13,06,25.20
2007,07,10,13,07,25.20
2007,07,10,13,08,25.20
2007,07,10,13,09,25.30
2007,07,10,13,10,25.50
2007,07,10,13,11,25.60
2007,07,10,13,12,25.70
2007,07,10,13,13,25.60
2007,07,10,13,14,25.50
2007,07,10,13,15,25.50
2007,07,10,13,16,25.40
2007,07,10,13,17,25.40
2007,07,10,13,18,25.40
2007,07,10,13,19,25.30
2007,07,10,13,20,25.30
2007,07,10,13,21,25.30
2007,07,10,13,22,25.20
2007,07,10,13,23,25.20
2007,07,10,13,24,25.40
2007,07,10,13,25,25.50
2007,07,10,13,26,25.60
2007,07,10,13,27,25.70
2007,07,10,13,28,25.80
2007,07,10,13,29,25.80
2007,07,10,13,30,25.70
2007,07,10,13,31,25.60
2007,07,10,13,32,25.50
2007,07,10,13,33,25.40
2007,07,10,13,34,25.30
2007,07,10,13,35,25.40
2007,07,10,13,36,25.50
2007,07,10,13,37,25.50
2007,07,10,13,38,25.60
2007,07,10,13,39,25.60
2007,07,10,13,40,25.70
2007,07,10,13,41,25.70
2007,07,10,13,42,25.70
2007,07,10,13,43,25.70
2007,07,10,13,44,25.70
2007,07,10,13,45,25.70
2007,07,10,13,46,25.70
2007,07,10,13,47,25.80
2007,07,10,13,48,25.90
2007,07,10,13,49,25.90
2007,07,10,13,50,26.10
2007,07,10,13,51,26.20
2007,07,10,13,52,26.30
2007,07,10,13,53,26.30
2007,07,10,13,54,26.30
2007,07,10,13,55,26.40
2007,07,10,13,56,26.50
2007,07,10,13,57,26.50
2007,07,10,13,58,26.50
2007,07,10,13,59,26.30
2007,07,10,14,00,26.30
2007,07,10,14,01,26.30
2007,07,10,14,02,26.40
2007,07,10,14,03,26.40
2007,07,10,14,04,26.40
2007,07,10,14,05,26.40
2007,07,10,14,06,26.50
2007,07,10,14,07,26.60
2007,07,10,14,08,26.70
2007,07,10,14,09,26.80
2007,07,10,14,10,26.90
2007,07,10,14,11,27.10
2007,07,10,14,12,27.10
2007,07,10,14,13,27.10
2007,07,10,14,14,27.20
2007,07,10,14,15,27.20
2007,07,10,14,16,27.10
2007,07,10,14,17,27.10
2007,07,10,14,18,27.00
2007,07,10,14,19,26.90
2007,07,10,14,20,26.80
2007,07,10,14,21,26.80
2007,07,10,14,22,26.90
2007,07,10,14,23,27.00
2007,07,10,14,24,27.10
2007,07,10,14,25,27.10
2007,07,10,14,26,27.10
2007,07,10,14,27,27.10
2007,07,10,14,28,27.20
2007,07,10,14,29,27.30
2007,07,10,14,30,27.30
2007,07,10,14,31,27.50
2007,07,10,14,32,27.60
2007,07,10,14,33,27.70
2007,07,10,14,34,27.60
2007,07,10,14,35,27.60
2007,07,10,14,36,27.50
2007,07,10,14,37,27.50
2007,07,10,14,38,27.60
2007,07,10,14,39,27.60
2007,07,10,14,40,27.60
2007,07,10,14,41,27.70
2007,07,10,14,42,27.80
2007,07,10,14,43,27.90
2007,07,10,14,44,28.10
2007,07,10,14,45,28.20
2007,07,10,14,46,28.40
2007,07,10,14,47,28.60
2007,07,10,14,48,28.70
2007,07,10,14,49,28.60
2007,07,10,14,50,28.60
2007,07,10,14,51,28.50
2007,07,10,14,52,28.40
2007,07,10,14,53,28.40
2007,07,10,14,54,28.40
2007,07,10,14,55,28.40
2007,07,10,14,56,28.50
2007,07,10,14,57,28.60
2007,07,10,14,58,28.60
2007,07,10,14,59,28.50
2007,07,10,15,00,28.40
2007,07,10,15,01,28.40
2007,07,10,15,02,28.40
2007,07,10,15,03,28.50
2007,07,10,15,04,28.50
2007,07,10,15,05,28.60
2007,07,10,15,06,28.70
2007,07,10,15,07,28.90
2007,07,10,15,08,29.10
2007,07,10,15,09,29.20
2007,07,10,15,10,29.30
2007,07,10,15,11,29.40
2007,07,10,15,12,29.50
2007,07,10,15,13,29.50
2007,07,10,15,14,29.40
2007,07,10,15,15,29.30
2007,07,10,15,16,29.30
2007,07,10,15,17,29.20
2007,07,10,15,18,29.10
2007,07,10,15,19,29.10
2007,07,10,15,20,29.00
2007,07,10,15,21,29.00
2007,07,10,15,22,28.90
2007,07,10,15,23,28.70
2007,07,10,15,24,28.70
2007,07,10,15,25,28.80
2007,07,10,15,26,28.90
2007,07,10,15,27,29.00
2007,07,10,15,28,29.00
2007,07,10,15,29,29.00
2007,07,10,15,30,28.90
2007,07,10,15,31,28.80
2007,07,10,15,32,28.80
2007,07,10,15,33,28.80
2007,07,10,15,34,28.70
2007,07,10,15,35,28.80
2007,07,10,15,36,28.90
2007,07,10,15,37,28.90
2007,07,10,15,38,28.90
2007,07,10,15,39,29.00
2007,07,10,15,40,29.10
2007,07,10,15,41,29.20
2007,07,10,15,42,29.40
2007,07,10,15,43,29.50
2007,07,10,15,44,29.50
2007,07,10,15,45,29.60
2007,07,10,15,46,29.60
2007,07,10,15,47,29.50
2007,07,10,15,48,29.40
2007,07,10,15,49,29.30
2007,07,10,15,50,29.30
2007,07,10,15,51,29.30
2007,07,10,15,52,29.30
2007,07,10,15,53,29.20
2007,07,10,15,54,29.20
2007,07,10,15,55,29.20
2007,07,10,15,56,29.10
2007,07,10,15,57,29.10
2007,07,10,15,58,29.20
2007,07,10,15,59,29.30
2007,07,10,16,00,29.40
2007,07,10,16,01,29.40
2007,07,10,16,02,29.40
2007,07,10,16,03,29.30
2007,07,10,16,04,29.30
2007,07,10,16,05,29.30
2007,07,10,16,06,29.30
2007,07,10,16,07,29.30
2007,07,10,16,08,29.40
2007,07,10,16,09,29.50
2007,07,10,16,10,29.50
2007,07,10,16,11,29.60
2007,07,10,16,12,29.60
2007,07,10,16,13,29.70
2007,07,10,16,14,29.60
2007,07,10,16,15,29.60
2007,07,10,16,16,29.60
2007,07,10,16,17,29.60
2007,07,10,16,18,29.70
2007,07,10,16,19,29.70
2007,07,10,16,20,29.60
2007,07,10,16,21,29.50
2007,07,10,16,22,29.40
2007,07,10,16,23,29.50
2007,07,10,16,24,29.50
2007,07,10,16,25,29.60
2007,07,10,16,26,29.70
2007,07,10,16,27,29.80
2007,07,10,16,28,29.90
2007,07,10,16,29,29.90
2007,07,10,16,30,29.90
2007,07,10,16,31,29.90
2007,07,10,16,32,29.80
2007,07,10,16,33,29.80
2007,07,10,16,34,29.90
2007,07,10,16,35,30.00
2007,07,10,16,36,30.00
2007,07,10,16,37,30.10
2007,07,10,16,38,30.10
2007,07,10,16,39,30.10
2007,07,10,16,40,30.10
2007,07,10,16,41,30.20
2007,07,10,16,42,30.30
2007,07,10,16,43,30.50
2007,07,10,16,44,30.50
2007,07,10,16,45,30.60
2007,07,10,16,46,30.60
2007,07,10,16,47,30.70
2007,07,10,16,48,30.80
2007,07,10,16,49,30.90
2007,07,10,16,50,31.00
2007,07,10,16,51,31.00
2007,07,10,16,52,30.90
2007,07,10,16,53,30.90
2007,07,10,16,54,30.90
2007,07,10,16,55,30.80
2007,07,10,16,56,30.70
2007,07,10,16,57,30.70
2007,07,10,16,58,30.70
2007,07,10,16,59,30.60
2007,07,10,17,00,30.60
2007,07,10,17,01,30.60
2007,07,10,17,02,30.60
2007,07,10,17,03,30.60
2007,07,10,17,04,30.60
2007,07,10,17,05,30.60
2007,07,10,17,06,30.60
2007,07,10,17,07,30.50
2007,07,10,17,08,30.40
2007,07,10,17,09,30.50
2007,07,10,17,10,30.50
2007,07,10,17,11,30.50
2007,07,10,17,12,30.60
2007,07,10,17,13,30.60
2007,07,10,17,14,30.70
2007,07,10,17,15,30.80
2007,07,10,17,16,30.80
2007,07,10,17,17,30.70
2007,07,10,17,18,30.70
2007,07,10,17,19,30.80